{"data":{"norad_id":66596,"epoch":"2026-09-20T08:31:57.471456Z","epoch_age_seconds":98703,"freshness":"FRESH","line1":"1 66596U 25270J   26263.35552629  .00011950  00000+0  44305-3 0  9998","line2":"2 66596  43.0031  37.1438 0002541 263.2068  96.8494 15.27581411 47589","mean_motion":15.27581411,"eccentricity":0.0002541,"inclination_deg":43.0031,"raan_deg":37.1438,"arg_perigee_deg":263.2068,"mean_anomaly_deg":96.8494,"bstar":0.00044305,"rev_number":4758,"period_min":94.266661641119,"perigee_km":481.30144468788,"apogee_km":484.78829731472,"semimajor_km":6861.1818710013,"source":"CELESTRAK","updated_at":"2026-09-21T09:00:35.977257Z"}}